Regional Weather Roundup
Issued by NWS

Home | Current Version | Previous Version | Graphics & Text | Print | Product List | Glossary On
Versions: 1 2 3 4 5 6 7 8 9 10 11 12 13 14 15 16 17 18 19 20 21 22 23 24 25 26 27
000
ASUS45 KTFX 250510
RWRMT
MONTANA REGIONAL WEATHER ROUNDUP
NATIONAL WEATHER SERVICE GREAT FALLS MT
1000 PM MST FRI FEB 24 2017

NOTE: "FAIR" INDICATES FEW OR NO CLOUDS BELOW 12000 FEET WITH NO
SIGNIFICANT WEATHER AND/OR OBSTRUCTIONS TO VISIBILITY.

MTZ001>007-043-250600-
WEST OF THE DIVIDE

CITY           SKY/WX    TMP DP  RH WIND       PRES   REMARKS
KALISPELL      CLOUDY    20  14  77 CALM      30.10S
MISSOULA       PTCLDY    23  14  68 N3        30.11R
BUTTE          CLOUDY    20   9  62 VRB5      29.98R
MULLAN PASS    CLOUDY    13  12  96 CALM      29.97R
ANACONDA         N/A     21  12  68 N3        30.01S
DEER LODGE       N/A     23  12  63 CALM      30.05S
EUREKA           N/A     21  14  73 SE3       30.11S
HAMILTON         N/A     27  16  63 SE3       30.08S
LIBBY            N/A     21  16  79 SE6       30.12S WCI  14
PLAINS           N/A     21  11  65 CALM      30.13R
RONAN            N/A     22  16  78 CALM      30.12R
$$

MTZ008-052>055-250600-
SOUTHWEST MONTANA

CITY           SKY/WX    TMP DP  RH WIND       PRES   REMARKS
BOZEMAN        LGT SNOW  26  23  88 CALM      30.02S FOG
DILLON         CLOUDY    22  13  68 SW9       29.98R WCI  12
W YELLOWSTONE  LGT SNOW  12   9  85 SW5       29.99R
ENNIS          CLOUDY    19  10  68 S13       30.03S WCI   7
THREE FORKS      N/A     26   2  35 CALM      30.01S
TWIN BRIDGES     N/A     23  17  78 CALM      29.99S
$$

MTZ009-010-012-014-046-048-049-054-250600-
EAST SLOPES AND CENTRAL MONTANA

CITY           SKY/WX    TMP DP  RH WIND       PRES   REMARKS
CUT BANK       CLEAR     14  11  87 W7        30.03S WCI   4
GREAT FALLS    CLOUDY    23  17  78 E3        30.05R
MALMSTROM AFB  CLOUDY    25  19  80 NE5       30.06F
HELENA         CLOUDY    25  13  60 N6        30.04R WCI  18
AUGUSTA          N/A     18  13  81 W3        30.01S
BOWMANS CRNR   MOCLDY    22  15  74 CALM      30.01R
CHOTEAU          N/A     19  16  86 SW6       30.05F WCI  11
CONRAD           N/A     13  11  92 NW5       30.05S
POWER            N/A     17  15  90 CALM      30.03F
RAYNESFORD     FLURRIES  17  14  87 CALM      30.04R
ULM            MOCLDY    25  18  75 MISG      30.05S
$$

MTZ011-013-016-021-045-047-050-051-250600-
NORTH CENTRAL MONTANA

CITY           SKY/WX    TMP DP  RH WIND       PRES   REMARKS
HAVRE          CLOUDY    25  23  92 NW3       30.07S
LEWISTOWN      CLOUDY    20  16  84 SW9       30.01S WCI   9
N BAR RANCH    CLOUDY    18  14  86 W5        30.01F
CHINOOK          N/A     23  21  93 CALM      30.07F
DENTON           N/A     18  16  91 SW8G18    30.00F WCI   7
FORT BENTON      N/A     21  16  79 MISG        N/A
GEYSER         MOCLDY    20  16  83 SW6       30.02S WCI  13
GRASS RANGE      N/A     18  16  92 W7        29.99S WCI   8
JUDITH GAP     FLURRIES  17  17  96 NW9       29.98F WCI   6
ROY              N/A     17  15  88 MISG      30.01S
STANFORD       FLURRIES  21  17  84 W3        30.00S
WINIFRED         N/A     18  16  94 SW6       30.02S WCI   9
$$

MTZ017>020-022>027-061-062-250600-
NORTHEAST MONTANA

CITY           SKY/WX    TMP DP  RH WIND       PRES   REMARKS
GLASGOW        FLURRIES  27  23  85 N7        30.03F WCI  19
JORDAN           N/A     28  25  88 W8        30.02S WCI  20
SIDNEY         MOCLDY    25  21  85 CALM      30.04F
WOLF POINT     LGT SNOW  28  26  92 N6        30.05S VSB 1   WCI  22
PLENTYWOOD       N/A     23  21  93 NW3       30.02F
POPLAR           N/A     27  25  93 N6        30.05S WCI  20
SCOBEY           N/A     18  10  70 CALM      30.00S
$$

MTZ028>42-056>058-250600-
SOUTHCENTRAL AND SOUTHEAST MONTANA

CITY           SKY/WX    TMP DP  RH WIND       PRES   REMARKS
BAKER          CLEAR     20  15  81 CALM      30.02S
BILLINGS       FLURRIES  27  21  78 NW9       30.03S WCI  18
LIVINGSTON     LGT SNOW  24  20  84 W6        30.00S FOG     WCI  17
MILES CITY     CLOUDY    28  20  71 S6        30.02F WCI  22
BIG TIMBER     CLOUDY    19  19 100 CALM      30.03F FOG
EKALAKA          N/A     21  11  65 SE5       29.96F
FORSYTH          N/A     28  28 100 W3        30.03F
HARLOWTON      MOCLDY    19  17  92 N7        30.00S WCI  10
LAUREL           N/A     23  15  71 CALM      30.00S
$$

REGIONAL REPORTS...DAKOTAS

CITY           SKY/WX    TMP DP  RH WIND       PRES   REMARKS
WILLISTON      CLOUDY    22  17  81 SW3       30.03F
MINOT          PTCLDY    22  16  78 S6        30.03F WCI  14
DICKINSON      CLOUDY    19  15  84 S5        30.01F
BEACH            N/A    N/A N/A N/A MISG        N/A
CROSBY           N/A     25  25 100 W12       30.03S WCI  14
TIOGA          CLOUDY    23  19  86 SW14      30.01F WCI  11
WATFORD CITY   CLOUDY    19  16  86 CALM      30.03F
BISMARCK       CLOUDY    18  15  88 CALM      30.09F
GRAND FORKS    CLEAR     16   8  71 CALM      30.10F
FARGO          CLEAR     18  11  74 N12       30.09F WCI   5
BUFFALO SD       N/A     24  14  65 S5        29.95F
RAPID CITY     CLOUDY    15  12  88 SW3       30.04F
$$

REGIONAL REPORTS...WYOMING/IDAHO/WASHINGTON

CITY           SKY/WX    TMP DP  RH WIND       PRES   REMARKS
GILLETTE       CLOUDY    18  13  80 S8        29.96F WCI   8
SHERIDAN       CLEAR     23  19  85 W8        29.99F WCI  14
BUFFALO WY     CLOUDY    21  15  78 N7        29.96R WCI  12
CODY           FLURRIES  19  16  88 CALM      30.00S
YELLOWSTONE LA   N/A      5   3  91 CALM      29.95S
IDAHO FALLS    CLOUDY    21  14  74 S15       30.10S WCI   8
SALMON         CLOUDY    27  21  80 W5        30.04R
BOISE          PTCLDY    28  17  63 SE8       30.16R WCI  20
SPOKANE        FOG       18  16  92 CALM      30.15S VSB 1/8
$$

REGIONAL REPORTS...ALBERTA

CITY           SKY/WX    TMP DP  RH WIND       PRES   REMARKS
EDMONTON       CLOUDY    14   9  79 CALM      30.10F
CALGARY        LGT SNOW  16  10  79 SE6       30.02F WCI   7
LETHBRIDGE     CLOUDY    23  21  93 NE7       30.06S WCI  15
MEDICINE HAT   FLURRIES  21  19  93 N7        30.09S WCI  13
WATERTON GATE    N/A     12   7  79 E1          N/A
CARDSTON         N/A     16  12  86 SW6         N/A  WCI   7
MILK RIVER       N/A     21  21 100 N8          N/A  WCI  12
$$

REGIONAL REPORTS...SASKATCHEWAN

CITY           SKY/WX    TMP DP  RH WIND       PRES   REMARKS
SWIFT CURRENT  LGT SNOW  19  18  93 N12       30.02S WCI   7
REGINA         FOG       14  12  92 W6        30.01F VSB 3/8 WCI   5
SASKATOON      CLOUDY    12   3  67 N14G20    30.11S WCI  -3
CYPRESS HILLS    N/A     18  14  86 NW2         N/A
VAL MARIE        N/A     19  16  86 S2          N/A
ROCKGLEN         N/A     18  14  86 NW8         N/A  WCI   7
ASSINIBOIA       N/A      7   3  85 SW3         N/A
$$




USA.gov is the U.S. government's official web portal to all federal, state and local government web resources and services.